Zurück zum Katalog

SCOUT G-1 DEB

AktivPO
NORAD 18562·DEBRIS·🇺🇸 United States

Gestartet Sep 16, 1987 von Vandenberg Space Force Base

Loading…

Nächste Überflüge (nächste 24 Stunden)

TLE

AktuellSource: Space-Track

Epoche: Sep 14, 2026, 04:09 UTC

1 18562U 87080H   26257.17313766  .00000198  00000-0  31765-3 0  9994
2 18562  89.8966 153.4044 0177897 263.1623 253.3488 13.40164458902452

Verfolge SCOUT G-1 DEB in Echtzeit mit AllMySat

Download on the App Store